Location: Buckeye Ditch
(40.9104°N, 122.9517°W)
Time: 15:29:46
(UTC+00:00)

A-11 Canister half - Pass Details

Date: 21 May 2025
Orbit: 1515 x 1684 km, 47.2° (Epoch: 14 June)

Event Time Altitude Azimuth Distance (km) Brightness Sun altitude
Rises 11:37:11 0° 290° (WNW) 4,699 11.3 -12.0°
Reaches altitude 10° 11:40:17 10° 293° (WNW) 3,701 10.8 -11.5°
Maximum altitude 11:49:35 70° 17° (NNE) 1,599 9.3 -10.2°
Drops below altitude 10° 11:58:48 10° 101° (E) 3,682 11.6 -8.8°
Sets 12:01:53 0° 104° (ESE) 4,673 12.2 -8.3°
